Flag for Switzerland Weather past 2 weeks in Lugano, Switzerland

Now
75 °F

Scattered showers. Partly sunny.


Feels Like: 75 °F
Forecast: 59 / 82 °F
Wind: 3 mph from North

Location: Lugano Airport

Current Time: Jul 29, 2015 at 4:20:52 PM

Latest Report: Jul 29, 2015 at 3:50 PM


Visibility: 5 mi

Pressure: 29.74 "Hg

Humidity: 83%

Dew point: 70 °F

Location of LuganoLocation

Historic Weather in Lugano — Graph

°F

Lugano temperature yesterday

Maximum temperature yesterday: 86 °F (at 4:50 PM)
Minimum temperature yesterday: 64 °F (at 5:50 AM)
Average temperature yesterday: 75 °F

Past Weeks' High & Low Weather Summary

 TemperatureHumidityPressure
High95 °F (Jul 21, 3:20 PM)100% (Jul 29, 4:50 AM)30.12 "Hg (Jul 29, 4:50 AM)
Low64 °F (Jul 18, 6:50 AM)27% (Jul 26, 12:50 AM)29.65 "Hg (Jul 27, 4:20 PM)
Average80 °F60%29.91 "Hg
* Reported Jul 14 3:20 PM — Jul 29 3:20 PM, Lugano, Weather by CustomWeather, © 2015

Note: Actual official high and low records may vary slightly from our data, if they occured in-between our weather recording intervals... More about our weather records

Advertising

Lugano weather history for previous 24 hours

 ConditionsComfort  
Time TempWeatherWind HumidityBarometerVisibility
3:20 PM
Wed, Jul 29
75 °FScattered showers. Scattered clouds.3 mph83%29.74 "Hg5 mi
2:50 PM73 °FThunderstorms. Broken clouds.3 mph89%29.74 "Hg4 mi
2:20 PM75 °FSprinkles. Broken clouds.3 mph89%29.74 "Hg6 mi
1:50 PM77 °FRain. Scattered clouds.8 mph74%29.74 "HgN/A
1:20 PM81 °FScattered clouds.5 mph66%29.74 "HgN/A
12:50 PM81 °FScattered clouds.2 mph62%29.74 "HgN/A
12:20 PM81 °FScattered clouds.2 mph70%29.74 "HgN/A
11:50 AM77 °FScattered clouds.2 mph74%29.77 "HgN/A
11:20 AM77 °FScattered clouds.1 mph74%29.77 "HgN/A
10:50 AM77 °FPartly sunny.2 mph74%29.77 "HgN/A
10:20 AM75 °FPartly sunny.2 mph78%29.77 "HgN/A
9:20 AM73 °FBroken clouds.1 mph83%29.77 "Hg6 mi
8:50 AM72 °FBroken clouds.1 mph88%29.77 "Hg6 mi
8:20 AM70 °FBroken clouds.1 mph94%29.77 "Hg6 mi
7:50 AM70 °FBroken clouds.2 mph94%29.77 "Hg6 mi
7:20 AM70 °FPartly sunny.No wind94%29.77 "Hg6 mi
6:50 AM68 °FPassing clouds.1 mph100%29.77 "Hg6 mi
6:20 AM68 °FPassing clouds.1 mph100%29.74 "HgN/A
5:50 AM68 °FPassing clouds.2 mph100%29.74 "Hg3 mi
5:20 AM70 °FPassing clouds.1 mph94%29.74 "Hg4 mi
4:50 AM68 °FPassing clouds.1 mph100%29.74 "Hg4 mi
4:20 AM70 °FFog.2 mph94%29.74 "Hg3 mi
3:50 AM70 °FSprinkles. Mostly cloudy.1 mph94%29.74 "Hg4 mi
3:20 AM70 °FLots of rain. Fog.1 mph94%29.77 "Hg1 mi
2:50 AM70 °FMostly cloudy.2 mph94%29.77 "HgN/A
2:20 AM70 °FRain showers. Passing clouds.3 mph94%29.77 "Hg5 mi
1:50 AM70 °FSprinkles. Partly cloudy.2 mph94%29.77 "HgN/A
1:20 AM70 °FPassing clouds.6 mph94%29.77 "HgN/A
12:50 AM70 °FRain. Passing clouds.5 mph94%29.77 "Hg3 mi
11:20 PM
Tue, Jul 28
73 °FPassing clouds.5 mph89%29.77 "HgN/A
10:50 PM75 °FPartly cloudy.3 mph74%29.74 "HgN/A
10:20 PM75 °FPartly cloudy.1 mph74%29.74 "HgN/A
9:50 PM77 °FScattered clouds.1 mph65%29.74 "HgN/A
9:20 PM77 °FScattered clouds.3 mph65%29.74 "HgN/A
8:50 PM79 °FScattered clouds.2 mph61%29.71 "HgN/A
8:20 PM81 °FScattered clouds.2 mph58%29.74 "HgN/A
7:50 PM81 °FScattered clouds.2 mph58%29.71 "HgN/A
7:20 PM82 °FScattered clouds.5 mph51%29.71 "HgN/A
6:50 PM82 °FScattered clouds.5 mph55%29.71 "HgN/A
6:20 PM82 °FPassing clouds.3 mph55%29.71 "HgN/A
5:50 PM82 °FPassing clouds.6 mph51%29.71 "HgN/A
5:20 PM82 °FScattered clouds.5 mph55%29.71 "HgN/A
4:50 PM86 °FScattered clouds.8 mph46%29.71 "HgN/A
4:20 PM84 °FScattered clouds.7 mph51%29.74 "HgN/A
Weather by CustomWeather, © 2015

See weather overviewHow to use our weather pages